[ hide orbit diagram ]
For accurate long-term ephemerides, please instead use our Horizons system.This orbit viewer was implemented using two-body methods, and hence should not be used for determining accurate long-term trajectories (over several years or decades) or planetary encounter circumstances.
[ revert to old Java-based viewer ]
Orbital Elements at Epoch 2458600.5 (2019-Apr-27.0) TDB
Reference: JPL 9 (heliocentric ecliptic J2000)
Element | Value | Uncertainty (1-sigma) | Units |
e | .119894272747452 | 6.9153e-08 | |
a | 2.981011873831495 | 4.5002e-08 | au |
q | 2.623605623166949 | 1.9603e-07 | au |
i | 7.129646624176219 | 9.6517e-06 | deg |
node | 169.25439133325 | 6.1324e-05 | deg |
peri | 294.23483085573 | 7.9104e-05 | deg |
M | 90.17247612076162 | 5.3356e-05 | deg |
tp | 2458129.614323219732 (2018-Jan-11.11432322) | 0.00027231 | TDB |
period | 1879.939987606327 5.15 | 4.257e-05 1.166e-07 | d yr |
n | .191495474522236 | 4.3363e-09 | deg/d |
Q | 3.338418124496041 | 5.0398e-08 | au |
|
| | Orbit Determination Parameters
Additional Information
|
[ show covariance matrix ]
Physical Parameter Table
Parameter |
Symbol |
Value |
Units |
Sigma |
Reference |
Notes |
absolute magnitude |
H |
16.4 |
|
n/a |
MPO386253 |
|
|
300908 (2008 BV43) Discovered 2008-Jan-30 by CSS at Catalina |
Reference: 20111012/Numbers.arc | Last Updated: 2011-10-13 |
|
[ show close-approach data ]
|